Погода в Бузане

Россия / Астраханская область     46°42′36″N   47°58′38″E
темп.,
°C
ветер,
м/с
пор.,
м/с
влажн.,
%
обл.,
%
осадки,
мм/ч
давл.,
гПа
погр.,
м
28 сентября, вт
вт2801:00+11зсз510815 0.0 1014352
04:00+10зсз48885 0.0 1014201
07:00+10зсз35945 0.0 1015129
10:00+14сз446920 0.0 1016671
13:00+17ссз555193 0.3 10171535
16:00+15ссз765795 0.4 10181073
19:00+14ссз4654100 0.0 1020809
22:00+14с4648100 0.0 1021491
29 сентября, ср
ср2901:00+13ссв4644100 0.0 1022573
04:00+12ссв454999 0.0 1023687
07:00+10ссв564897 0.0 1024722
10:00+11ссв554490 0.0 10251176
13:00+13ссв443661 0.0 10251824
16:00+13ссв553595 0.0 10241993
19:00+12ссв4536100 0.0 10251305
22:00+11ссв344090 0.0 1027273
30 сентября, чт
чт3001:00+9ссв22495 0.0 102623
04:00+8ссв33545 0.0 102733
07:00+7ссв33575 0.0 102826
10:00+12ссв34425 0.0 10291236
13:00+14ссв43314 0.0 10292077
16:00+14ссв432931 0.0 10282157
19:00+11ссв35344 0.0 102985
22:00+10ссв47372 0.0 1030123
1 октября, пт
пт101:00+8св34401 0.0 103164
04:00+7св33420 0.0 103133
07:00+7св33440 0.0 103230
10:00+12всв45300 0.0 10331121
13:00+15всв55230 0.0 10321837
16:00+15всв55210 0.0 10311930
19:00+12всв34270 0.0 103241
22:00+9юв33490 0.0 103332
2 октября, сб
сб201:00+8вюв22550 0.0 103314
04:00+7всв33520 0.0 103317
07:00+7всв33490 0.0 103327
10:00+14в55338 0.0 1033873
13:00+16в55298 0.0 10322020
16:00+17в552734 0.0 10312123
19:00+12ююв47443 0.0 1032157
22:00+9юв33560 0.0 103239